TimeCDT,TemperatureF,Dew PointF,Humidity,Sea Level PressureIn,VisibilityMPH,Wind Direction,Wind SpeedMPH,Gust SpeedMPH,PrecipitationIn,Events,Conditions,WindDirDegrees,DateUTC
12:51 AM,34.0,24.1,67,30.28,10.0,West,6.9,-,N/A,,Mostly Cloudy,280,2013-03-27 05:51:00
1:51 AM,34.0,24.1,67,30.28,10.0,WNW,5.8,-,N/A,,Mostly Cloudy,290,2013-03-27 06:51:00
2:51 AM,34.0,24.1,67,30.29,10.0,West,8.1,-,N/A,,Mostly Cloudy,280,2013-03-27 07:51:00
3:51 AM,34.0,23.0,64,30.28,10.0,West,6.9,-,N/A,,Mostly Cloudy,280,2013-03-27 08:51:00
4:51 AM,33.1,21.9,64,30.28,10.0,West,4.6,-,N/A,,Mostly Cloudy,280,2013-03-27 09:51:00
5:51 AM,33.1,23.0,66,30.29,10.0,West,5.8,-,N/A,,Mostly Cloudy,280,2013-03-27 10:51:00
6:51 AM,34.0,23.0,64,30.30,10.0,West,5.8,-,N/A,,Mostly Cloudy,280,2013-03-27 11:51:00
7:51 AM,35.1,21.9,59,30.32,10.0,WNW,6.9,-,N/A,,Mostly Cloudy,300,2013-03-27 12:51:00
8:51 AM,37.0,21.0,52,30.33,10.0,NW,10.4,-,N/A,,Mostly Cloudy,310,2013-03-27 13:51:00
9:51 AM,39.9,19.9,45,30.33,10.0,NNW,10.4,-,N/A,,Mostly Cloudy,330,2013-03-27 14:51:00
10:51 AM,42.8,17.6,36,30.31,10.0,WNW,11.5,-,N/A,,Mostly Cloudy,300,2013-03-27 15:51:00
11:51 AM,41.0,18.0,40,30.34,10.0,WNW,8.1,-,N/A,,Overcast,290,2013-03-27 16:51:00
12:51 PM,43.0,19.0,38,30.34,10.0,NW,8.1,-,N/A,,Mostly Cloudy,320,2013-03-27 17:51:00
1:51 PM,42.1,19.0,40,30.33,10.0,NNW,9.2,-,N/A,,Overcast,330,2013-03-27 18:51:00
2:51 PM,42.1,19.0,40,30.32,10.0,Variable,6.9,-,N/A,,Overcast,0,2013-03-27 19:51:00
3:51 PM,42.1,19.0,40,30.32,10.0,NW,9.2,-,N/A,,Overcast,320,2013-03-27 20:51:00
4:51 PM,42.8,19.4,39,30.29,10.0,NNW,6.9,-,N/A,,Overcast,330,2013-03-27 21:51:00
5:51 PM,41.0,18.0,40,30.32,10.0,NW,9.2,-,N/A,,Overcast,310,2013-03-27 22:51:00
6:51 PM,39.9,19.0,43,30.32,10.0,West,8.1,-,N/A,,Overcast,280,2013-03-27 23:51:00
7:51 PM,39.9,19.0,43,30.32,10.0,WNW,5.8,-,N/A,,Overcast,300,2013-03-28 00:51:00
8:51 PM,39.9,18.0,41,30.33,10.0,WNW,6.9,-,N/A,,Overcast,300,2013-03-28 01:51:00
9:51 PM,37.0,18.0,46,30.34,10.0,NW,4.6,-,N/A,,Scattered Clouds,310,2013-03-28 02:51:00
10:51 PM,35.1,18.0,50,30.34,10.0,WNW,3.5,-,N/A,,Partly Cloudy,290,2013-03-28 03:51:00
11:51 PM,33.1,19.0,56,30.35,10.0,West,4.6,-,N/A,,Clear,280,2013-03-28 04:51:00